Location: Unspecified
(49.5167°N, 0.0000°E)
Time: 00:29:42
(UTC+00:00)

NOAA 16 DEB - Visible Passes

Search period start: 04 April 2026 00:00
Search period end: 14 April 2026 00:00
Orbit: 694 x 731 km, 98.8° (Epoch: 28 March)

Date Brightness Start Highest point End Pass type
(mag) Time Alt. Az. Time Alt. Az. Time Alt. Az.
4 Apr ? 01:16:20 16° E 01:18:12 20° ENE 01:21:40 10° NNE visible
4 Apr ? 02:55:24 67° WSW 02:55:35 68° WSW 03:00:26 10° NNW visible
5 Apr ? 02:02:22 37° ESE 02:03:29 43° ENE 02:08:05 10° N visible
5 Apr ? 03:41:25 27° W 03:41:30 27° W 03:45:39 10° NW visible
6 Apr ? 01:09:18 13° E 01:11:46 18° NE 01:14:57 10° NNE visible
6 Apr ? 02:48:21 64° S 02:49:02 78° WSW 02:53:56 10° NNW visible
6 Apr ? 04:27:25 11° W 04:27:44 11° W 04:29:04 10° WNW visible
7 Apr ? 01:55:16 29° ESE 01:56:57 38° ENE 02:01:26 10° N visible
7 Apr ? 03:34:20 31° WSW 03:34:52 31° W 03:39:13 10° NNW visible
8 Apr ? 01:02:22 10° E 01:05:15 16° NE 01:08:08 10° NNE visible
8 Apr ? 02:41:13 52° SSE 02:42:25 89° WSW 02:47:20 10° NNW visible
8 Apr ? 04:20:17 13° W 04:21:01 13° W 04:23:14 10° WNW visible
9 Apr ? 01:48:05 22° ESE 01:50:21 34° ENE 01:54:44 10° N visible
9 Apr ? 03:27:09 33° SW 03:28:11 36° W 03:32:41 10° NNW visible
10 Apr ? 00:56:10 10° E 00:58:40 14° NE 01:01:10 10° NNE visible
10 Apr ? 02:34:01 40° SSE 02:35:45 80° ENE 02:40:39 10° NNW visible
10 Apr ? 04:13:04 14° WSW 04:14:13 15° W 04:17:02 10° NW visible
11 Apr ? 01:40:51 17° ESE 01:43:42 30° ENE 01:47:55 10° N visible
11 Apr ? 03:19:54 33° SW 03:21:24 42° W 03:26:03 10° NNW visible
12 Apr ? 00:50:00 10° ENE 00:52:01 13° NE 00:54:03 10° NNE visible
12 Apr ? 02:26:43 31° SE 02:28:59 69° ENE 02:33:52 10° N visible
12 Apr ? 04:05:47 15° WSW 04:07:22 18° W 04:10:36 10° NW visible
13 Apr ? 01:33:31 13° ESE 01:36:58 26° ENE 01:41:00 10° N visible
13 Apr ? 03:12:35 31° SSW 03:14:34 49° W 03:19:19 10° NNW visible
